| time (UTC) | temp F | wind direction | speed knots | gust knots | rain 1hr in | rain 24hr in | rain mn in | humidity % | barometer mb |
| 20260507100016 | 72 | 90 | 0.9 | 1.7 | 0.00 | 0.82 | 0.00 | 66 | 1013.5 |
| 20260507095015 | 73 | 68 | 1.7 | 1.7 | 0.00 | 0.82 | 0.00 | 64 | 1013.6 |
| 20260507094016 | 72 | 0.0 | 2.6 | 0.00 | 0.82 | 0.00 | 64 | 1013.5 | |
| 20260507093055 | 71 | 90 | 0.9 | 1.7 | 0.00 | 0.82 | 0.00 | 69 | 1013.4 |
| 20260507092016 | 70 | 0.0 | 1.7 | 0.00 | 0.82 | 0.00 | 73 | 1013.4 | |
| 20260507091016 | 69 | 0.0 | 0.9 | 0.00 | 0.82 | 0.00 | 72 | 1013.4 | |
| 20260507090056 | 69 | 225 | 0.9 | 1.7 | 0.00 | 0.82 | 0.00 | 73 | 1013.5 |
| 20260507085015 | 69 | 68 | 0.9 | 1.7 | 0.00 | 0.82 | 0.00 | 74 | 1013.4 |
| 20260507084015 | 68 | 68 | 1.7 | 3.5 | 0.00 | 0.82 | 0.00 | 75 | 1013.4 |
| 20260507083015 | 67 | 0.0 | 0.0 | 0.00 | 0.82 | 0.00 | 76 | 1013.4 | |
| 20260507082015 | 66 | 45 | 0.9 | 2.6 | 0.00 | 0.82 | 0.00 | 76 | 1013.4 |
| 20260507081015 | 66 | 0.0 | 0.9 | 0.00 | 0.82 | 0.00 | 80 | 1013.3 | |
| 20260507080016 | 66 | 0.0 | 1.7 | 0.00 | 0.82 | 0.00 | 79 | 1013.4 | |
| 20260507075015 | 66 | 0.0 | 0.9 | 0.00 | 0.83 | 0.00 | 81 | 1013.2 | |
| 20260507074056 | 66 | 0 | 0.9 | 1.7 | 0.00 | 0.86 | 0.00 | 80 | 1013.3 |
| 20260507073016 | 66 | 68 | 0.9 | 1.7 | 0.00 | 0.88 | 0.00 | 81 | 1013.2 |
| 20260507072015 | 65 | 68 | 1.7 | 4.3 | 0.00 | 0.88 | 0.00 | 82 | 1013.2 |
| 20260507071015 | 65 | 0.0 | 0.9 | 0.00 | 0.89 | 0.00 | 84 | 1013.2 | |
| 20260507070015 | 64 | 68 | 1.7 | 5.2 | 0.00 | 0.90 | 0.00 | 84 | 1013.1 |
| 20260507065016 | 63 | 0.0 | 1.7 | 0.00 | 0.90 | 0.00 | 87 | 1013.1 | |
| 20260507064016 | 63 | 68 | 0.9 | 3.5 | 0.00 | 0.90 | 0.00 | 87 | 1013.0 |
| 20260507063016 | 62 | 68 | 2.6 | 5.2 | 0.00 | 0.90 | 0.00 | 88 | 1013.0 |
| 20260507062016 | 62 | 68 | 3.5 | 5.2 | 0.00 | 0.90 | 0.00 | 89 | 1013.0 |
| 20260507061016 | 62 | 0.0 | 0.9 | 0.00 | 0.90 | 0.00 | 89 | 1012.9 | |
| 20260507060016 | 62 | 68 | 1.7 | 2.6 | 0.00 | 0.90 | 0.00 | 90 | 1012.8 |
| 20260507055056 | 61 | 68 | 0.9 | 2.6 | 0.00 | 0.90 | 0.00 | 91 | 1012.6 |
| 20260507054015 | 61 | 45 | 0.9 | 2.6 | 0.00 | 0.90 | 0.00 | 95 | 1012.4 |
| 20260507053056 | 59 | 23 | 1.7 | 2.6 | 0.00 | 0.90 | 0.00 | 97 | 1012.3 |
| 20260507052015 | 58 | 0.0 | 1.7 | 0.00 | 0.90 | 0.00 | 98 | 1012.2 | |
| 20260507051015 | 57 | 23 | 0.9 | 1.7 | 0.00 | 0.90 | 0.00 | 99 | 1012.3 |
| 20260507050015 | 56 | 0.0 | 0.0 | 0.00 | 0.90 | 0.00 | 98 | 1012.2 | |
| 20260507045015 | 56 | 0.0 | 0.0 | 0.00 | 0.90 | 0.00 | 99 | 1012.1 | |
| 20260507044015 | 56 | 0.0 | 0.0 | 0.00 | 0.90 | 0.00 | 98 | 1012.0 | |
| 20260507043015 | 55 | 0.0 | 0.0 | 0.00 | 0.90 | 0.00 | 98 | 1011.9 | |
| 20260507042055 | 55 | 0.0 | 0.0 | 0.00 | 0.90 | 0.00 | 98 | 1011.8 | |
| 20260507041015 | 56 | 0.0 | 0.0 | 0.00 | 0.90 | 0.00 | 98 | 1011.5 | |
| 20260507040015 | 56 | 0.0 | 0.0 | 0.00 | 0.90 | 0.00 | 98 | 1011.7 | |
| 20260507035015 | 56 | 0.0 | 0.9 | 0.00 | 0.90 | 0.00 | 98 | 1011.6 | |
| 20260507034034 | 56 | 0.0 | 0.0 | 0.00 | 0.90 | 0.00 | 98 | 1011.7 | |
| 20260507033015 | 57 | 0.0 | 0.0 | 0.00 | 0.90 | 0.00 | 98 | 1011.6 | |
| 20260507032015 | 57 | 0.0 | 0.0 | 0.00 | 0.90 | 0.00 | 98 | 1011.7 | |
| 20260507031055 | 57 | 0.0 | 0.0 | 0.00 | 0.90 | 0.00 | 98 | 1011.7 | |
| 20260507030015 | 58 | 0.0 | 0.0 | 0.00 | 0.90 | 0.00 | 98 | 1011.7 | |
| 20260507025015 | 58 | 0.0 | 0.0 | 0.00 | 0.90 | 0.00 | 98 | 1011.6 | |
| 20260507024015 | 58 | 0.0 | 0.0 | 0.00 | 0.90 | 0.00 | 98 | 1011.6 | |
| 20260507023015 | 58 | 0.0 | 0.9 | 0.00 | 0.90 | 0.00 | 98 | 1011.6 | |
| 20260507022015 | 58 | 0.0 | 0.9 | 0.00 | 0.90 | 0.00 | 98 | 1011.5 | |
| 20260507021015 | 58 | 0.0 | 0.9 | 0.00 | 0.90 | 0.00 | 98 | 1011.5 | |
| 20260507020015 | 58 | 0.0 | 0.9 | 0.00 | 0.90 | 0.00 | 98 | 1011.4 | |
| 20260507015015 | 58 | 0.0 | 0.9 | 0.00 | 0.90 | 0.00 | 98 | 1011.5 | |
| 20260507014015 | 58 | 0.0 | 0.9 | 0.00 | 0.90 | 0.00 | 98 | 1011.5 | |
| 20260507013055 | 58 | 0.0 | 0.9 | 0.00 | 0.90 | 0.00 | 98 | 1011.5 | |
| 20260507012015 | 58 | 0.0 | 0.9 | 0.00 | 0.90 | 0.00 | 98 | 1011.5 | |
| 20260507011015 | 59 | 0.0 | 0.9 | 0.00 | 0.90 | 0.00 | 98 | 1011.5 | |
| 20260507010015 | 59 | 0.0 | 0.9 | 0.00 | 0.90 | 0.00 | 98 | 1011.5 | |
| 20260507005015 | 59 | 0.0 | 0.9 | 0.00 | 0.90 | 0.00 | 98 | 1011.5 | |
| 20260507004017 | 59 | 0.0 | 0.0 | 0.00 | 0.90 | 0.00 | 98 | 1011.6 | |
| 20260507003017 | 59 | 0.0 | 0.0 | 0.00 | 0.90 | 0.00 | 99 | 1011.6 | |
| 20260507002017 | 59 | 0.0 | 0.0 | 0.00 | 0.90 | 0.00 | 98 | 1011.7 | |
| 20260507001017 | 59 | 0.0 | 0.0 | 0.00 | 0.90 | 0.00 | 98 | 1011.6 | |
| 20260507000017 | 59 | 0.0 | 0.0 | 0.00 | 0.90 | 0.00 | 98 | 1011.6 | |
| 20260506235017 | 59 | 0.0 | 0.0 | 0.00 | 0.90 | 0.00 | 98 | 1011.6 | |
| 20260506234017 | 59 | 0.0 | 0.9 | 0.00 | 0.90 | 0.00 | 98 | 1011.7 | |
| 20260506233017 | 58 | 0.0 | 0.0 | 0.00 | 0.90 | 0.00 | 98 | 1011.7 | |
| 20260506232057 | 58 | 0.0 | 0.0 | 0.00 | 0.90 | 0.00 | 98 | 1011.6 | |
| 20260506231017 | 58 | 0.0 | 0.9 | 0.00 | 0.90 | 0.00 | 98 | 1011.7 | |
| 20260506230017 | 58 | 0.0 | 0.9 | 0.00 | 0.90 | 0.00 | 98 | 1011.9 | |
| 20260506225017 | 58 | 0.0 | 0.9 | 0.00 | 0.90 | 0.00 | 98 | 1011.9 | |
| 20260506224017 | 58 | 0.0 | 0.9 | 0.00 | 0.90 | 0.00 | 98 | 1011.8 | |
| 20260506223017 | 58 | 0.0 | 0.0 | 0.00 | 0.90 | 0.00 | 98 | 1011.7 | |
| 20260506222017 | 58 | 0.0 | 0.0 | 0.00 | 0.90 | 0.00 | 98 | 1011.7 | |
| 20260506221057 | 59 | 0.0 | 0.0 | 0.00 | 0.90 | 0.00 | 98 | 1011.7 | |
| 20260506220017 | 59 | 0.0 | 0.9 | 0.00 | 0.90 | 0.90 | 98 | 1011.6 | |
| 20260506215016 | 59 | 0.0 | 0.0 | 0.00 | 0.90 | 0.90 | 98 | 1011.6 | |
| 20260506214016 | 59 | 0.0 | 0.0 | 0.00 | 0.90 | 0.90 | 98 | 1011.6 | |
| 20260506213016 | 59 | 0.0 | 0.0 | 0.00 | 0.90 | 0.90 | 98 | 1011.7 | |
| 20260506212016 | 59 | 0.0 | 0.0 | 0.00 | 0.90 | 0.90 | 98 | 1011.8 | |
| 20260506211016 | 59 | 0.0 | 0.0 | 0.00 | 0.90 | 0.90 | 98 | 1011.8 | |
| 20260506210016 | 59 | 0.0 | 0.9 | 0.00 | 0.90 | 0.90 | 98 | 1011.7 | |
| 20260506205016 | 59 | 0.0 | 0.9 | 0.00 | 0.90 | 0.90 | 98 | 1011.6 | |
| 20260506204016 | 59 | 0.0 | 0.0 | 0.00 | 0.90 | 0.90 | 98 | 1011.5 | |
| 20260506203016 | 59 | 0.0 | 0.0 | 0.00 | 0.90 | 0.90 | 98 | 1011.6 | |
| 20260506202016 | 59 | 0.0 | 0.0 | 0.00 | 0.90 | 0.90 | 98 | 1011.5 | |
| 20260506201016 | 59 | 0.0 | 0.0 | 0.00 | 0.90 | 0.90 | 98 | 1011.4 | |
| 20260506200016 | 59 | 0.0 | 0.0 | 0.00 | 0.90 | 0.90 | 98 | 1011.4 | |
| 20260506195016 | 59 | 0.0 | 0.0 | 0.12 | 0.90 | 0.90 | 98 | 1011.2 | |
| 20260506194016 | 59 | 0.0 | 0.0 | 0.17 | 0.91 | 0.90 | 98 | 1011.2 | |
| 20260506193056 | 59 | 0.0 | 0.0 | 0.18 | 0.91 | 0.90 | 98 | 1011.0 | |
| 20260506192019 | 60 | 0.0 | 0.0 | 0.20 | 0.92 | 0.90 | 97 | 1011.1 | |
| 20260506191016 | 60 | 0.0 | 0.0 | 0.21 | 0.92 | 0.90 | 97 | 1011.1 | |
| 20260506190016 | 60 | 0.0 | 0.9 | 0.21 | 0.93 | 0.90 | 97 | 1010.9 | |
| 20260506185016 | 60 | 0.0 | 0.9 | 0.09 | 0.83 | 0.78 | 97 | 1010.9 | |
| 20260506184016 | 60 | 0.0 | 0.0 | 0.05 | 0.78 | 0.73 | 97 | 1010.9 | |
| 20260506183016 | 61 | 0.0 | 0.0 | 0.03 | 0.76 | 0.72 | 97 | 1010.8 | |
| 20260506182016 | 61 | 0.0 | 0.0 | 0.01 | 0.74 | 0.69 | 97 | 1010.8 | |
| 20260506181016 | 61 | 0.0 | 0.0 | 0.00 | 0.73 | 0.69 | 97 | 1010.8 | |
| 20260506180016 | 61 | 0.0 | 0.0 | 0.00 | 0.73 | 0.69 | 97 | 1010.7 | |
| 20260506175016 | 61 | 0.0 | 0.0 | 0.00 | 0.73 | 0.69 | 97 | 1010.9 | |
| 20260506174016 | 61 | 0.0 | 0.0 | 0.00 | 0.74 | 0.69 | 97 | 1010.8 | |
| 20260506173039 | 61 | 0.0 | 0.0 | 0.00 | 0.76 | 0.69 | 97 | 1010.8 | |
| 20260506172056 | 61 | 0.0 | 0.0 | 0.00 | 0.79 | 0.69 | 97 | 1010.6 | |
| 20260506171016 | 61 | 0.0 | 0.0 | 0.00 | 0.80 | 0.69 | 97 | 1010.5 | |
| 20260506165016 | 61 | 0.0 | 0.0 | 0.00 | 0.80 | 0.69 | 97 | 1010.5 | |
| 20260506164056 | 61 | 0.0 | 0.0 | 0.00 | 0.81 | 0.69 | 97 | 1010.7 | |
| 20260506163016 | 61 | 0.0 | 0.9 | 0.01 | 0.81 | 0.69 | 97 | 1010.7 | |
| 20260506162016 | 61 | 0.0 | 0.0 | 0.03 | 0.83 | 0.69 | 97 | 1010.7 | |
| 20260506161016 | 61 | 0.0 | 0.9 | 0.10 | 0.83 | 0.69 | 96 | 1010.5 | |
| 20260506160016 | 61 | 0.0 | 0.9 | 0.22 | 0.83 | 0.69 | 96 | 1010.6 | |
| 20260506155016 | 61 | 0.0 | 0.0 | 0.30 | 0.85 | 0.69 | 96 | 1010.6 | |
| 20260506154033 | 61 | 0.0 | 0.9 | 0.39 | 0.86 | 0.69 | 96 | 1010.5 | |
| 20260506153016 | 61 | 0.0 | 0.9 | 0.49 | 0.87 | 0.68 | 95 | 1010.5 | |
| 20260506152056 | 61 | 0.0 | 0.9 | 0.47 | 0.84 | 0.65 | 96 | 1010.7 | |
| 20260506151016 | 61 | 0.0 | 0.9 | 0.40 | 0.77 | 0.58 | 95 | 1010.7 | |
| 20260506150016 | 61 | 0.0 | 0.0 | 0.28 | 0.66 | 0.46 | 95 | 1010.8 | |
| 20260506145016 | 62 | 225 | 0.9 | 1.7 | 0.20 | 0.59 | 0.39 | 93 | 1010.6 |
| 20260506144016 | 63 | 0.0 | 0.0 | 0.11 | 0.50 | 0.28 | 91 | 1010.5 | |
| 20260506143016 | 63 | 0.0 | 0.0 | 0.01 | 0.40 | 0.19 | 90 | 1010.6 | |
| 20260506142016 | 64 | 0.0 | 0.0 | 0.01 | 0.40 | 0.18 | 91 | 1010.7 | |
| 20260506141015 | 63 | 0.0 | 0.9 | 0.02 | 0.41 | 0.18 | 91 | 1010.9 | |
| 20260506140056 | 63 | 0.0 | 0.0 | 0.02 | 0.43 | 0.18 | 92 | 1010.9 | |
| 20260506135055 | 62 | 0.0 | 0.0 | 0.02 | 0.44 | 0.18 | 92 | 1011.0 | |
| 20260506134016 | 62 | 0.0 | 0.9 | 0.02 | 0.45 | 0.18 | 92 | 1011.2 | |
| 20260506133016 | 62 | 0.0 | 0.0 | 0.02 | 0.45 | 0.18 | 91 | 1011.1 | |
| 20260506132016 | 62 | 0.0 | 0.0 | 0.01 | 0.45 | 0.17 | 89 | 1011.2 | |
| 20260506131016 | 63 | 315 | 0.9 | 1.7 | 0.00 | 0.45 | 0.17 | 90 | 1011.0 |
| 20260506130156 | 63 | 23 | 0.9 | 1.7 | 0.00 | 0.45 | 0.17 | 90 | 1011.2 |
| 20260506125316 | 63 | 293 | 0.9 | 0.9 | 0.00 | 0.46 | 0.17 | 90 | 1011.2 |
| 20260506124316 | 62 | 293 | 0.9 | 2.6 | 0.00 | 0.46 | 0.17 | 91 | 1011.4 |
| 20260506123315 | 62 | 270 | 1.7 | 2.6 | 0.02 | 0.46 | 0.17 | 92 | 1011.4 |
| 20260506122356 | 62 | 293 | 0.9 | 2.6 | 0.02 | 0.46 | 0.17 | 92 | 1011.4 |
| 20260506121316 | 62 | 0.0 | 0.9 | 0.02 | 0.46 | 0.17 | 91 | 1011.4 | |
| 20260506120316 | 63 | 0.0 | 3.5 | 0.02 | 0.46 | 0.17 | 91 | 1011.3 | |
| 20260506115356 | 63 | 225 | 2.6 | 6.1 | 0.06 | 0.46 | 0.17 | 94 | 1011.4 |
| 20260506114316 | 63 | 0.0 | 1.7 | 0.07 | 0.46 | 0.17 | 94 | 1011.3 | |
| 20260506113355 | 63 | 0.0 | 0.9 | 0.06 | 0.45 | 0.15 | 94 | 1011.3 | |
| 20260506112316 | 63 | 0.0 | 0.9 | 0.07 | 0.46 | 0.15 | 94 | 1011.4 | |
| 20260506111355 | 62 | 0.0 | 0.0 | 0.07 | 0.46 | 0.15 | 94 | 1011.4 | |
| 20260506110316 | 62 | 0.0 | 0.9 | 0.06 | 0.45 | 0.14 | 93 | 1011.4 | |
| 20260506105315 | 63 | 0.0 | 0.0 | 0.03 | 0.42 | 0.11 | 93 | 1011.4 | |
| 20260506104315 | 63 | 0.0 | 0.0 | 0.02 | 0.41 | 0.09 | 93 | 1011.6 | |
| 20260506103315 | 63 | 248 | 0.9 | 2.6 | 0.01 | 0.41 | 0.09 | 92 | 1011.7 |
| 20260506102315 | 63 | 0.0 | 0.9 | 0.00 | 0.41 | 0.08 | 92 | 1011.6 | |
| 20260506101356 | 63 | 0.0 | 0.9 | 0.00 | 0.41 | 0.08 | 92 | 1011.7 | |
| 20260506100316 | 63 | 0.0 | 0.9 | 0.00 | 0.41 | 0.08 | 91 | 1011.8 |